{"data":{"norad_id":62138,"epoch":"2026-05-25T04:47:10.947264Z","epoch_age_seconds":57771,"freshness":"FRESH","line1":"1 62138U 24223A   26145.19943226  .00003323  00000+0  15858-3 0  9997","line2":"2 62138  97.4384 348.9723 0001694  92.8223 267.3205 15.19756101 82213","mean_motion":15.19756101,"eccentricity":0.0001694,"inclination_deg":97.4384,"raan_deg":348.9723,"arg_perigee_deg":92.8223,"mean_anomaly_deg":267.3205,"bstar":0.00015858,"rev_number":8221,"period_min":94.752046006098,"perigee_km":505.41084308234,"apogee_km":507.74338422405,"semimajor_km":6884.7141136532,"source":"CELESTRAK","updated_at":"2026-05-25T13:38:02.791783Z"}}